Wind_Speed
19 19 20 20 20 21 21 21 21 21 21 21 20 20 19 18 18 18 18 18 18 18 17 17 17 17 18 18 18 18 18 18 18 19 19 19 19 19 19 19 19 19 18
20 20 21 21 21 22 22 22 22 22 21 21 22 22 21 20 20 19 19 19 19 19 19 19 18 18 19 19 19 19 19 19 19 19 20 21 21 21 20 20 20 20 20
20 21 21 22 22 23 23 23 22 23 23 22 22 23 22 22 22 21 21 21 21 20 20 20 20 20 20 21 21 20 20 20 20 20 21 21 22 22 22 22 22 21 21
22 22 22 23 23 23 23 23 22 23 23 23 23 23 24 24 23 22 22 22 22 22 21 22 22 22 22 22 22 22 21 21 21 20 20 21 21 22 22 22 22 22 22
23 23 23 23 23 23 24 23 23 23 23 23 23 23 23 23 22 22 22 22 22 22 22 22 22 22 23 23 23 23 22 22 22 22 21 21 22 22 22 22 23 22 22
23 23 24 25 25 25 24 24 23 22 22 23 23 23 23 22 22 22 22 22 22 22 22 22 22 23 23 23 23 23 23 23 24 23 23 23 23 23 23 23 23 23 23
23 23 24 24 25 25 25 24 24 23 23 22 22 22 22 22 23 23 22 23 23 23 22 23 23 23 24 24 24 24 25 25 25 25 24 24 24 24 24 24 24 24 24
23 22 23 23 23 23 24 24 24 24 23 23 23 23 22 21 22 23 23 23 23 23 23 23 24 24 24 24 24 24 24 25 25 25 25 25 25 25 25 25 25 25 25
22 21 22 22 22 22 22 23 23 23 23 23 24 23 22 22 22 21 22 22 23 24 24 24 24 24 24 24 23 23 24 24 24 25 26 26 26 26 27 27 26 26 25
21 21 21 21 21 21 20 21 22 22 22 22 23 23 22 22 22 22 22 22 22 22 23 23 23 22 22 23 23 23 23 23 24 26 26 26 27 27 28 28 28 27 27
21 21 20 20 20 20 20 19 20 20 20 20 21 21 22 21 22 22 22 22 22 22 22 22 22 22 22 22 23 23 23 23 24 25 26 27 28 28 28 28 29 29 28
21 20 20 20 20 19 19 19 19 19 20 20 20 21 21 21 21 21 21 22 22 21 21 21 22 22 22 22 22 23 23 24 24 25 26 27 28 28 28 28 29 30 30
20 21 20 20 20 20 19 19 19 19 20 20 20 21 21 21 22 21 21 21 20 20 20 20 21 22 22 23 23 24 24 24 25 25 25 26 27 28 28 29 29 30 30
22 21 21 20 20 20 20 20 20 20 20 20 20 21 21 22 22 22 21 21 21 21 21 21 22 23 24 24 24 25 25 26 26 26 26 26 27 28 29 29 29 30 30
22 22 21 20 20 20 20 20 20 20 20 21 21 21 21 21 21 21 21 21 22 22 22 22 22 23 24 25 25 26 27 27 27 27 27 28 28 29 29 30 30 30 30
22 22 22 21 20 19 18 19 20 20 20 21 21 22 21 21 21 22 22 23 24 24 24 24 24 24 24 25 26 27 27 27 28 28 28 28 28 29 29 30 30 30 31
22 22 21 21 21 20 19 19 19 20 21 21 21 22 22 22 23 23 24 24 25 25 25 25 25 25 26 26 26 27 27 28 28 28 28 28 28 29 29 30 30 31 32
21 20 20 21 21 21 20 19 19 19 19 20 20 21 22 23 23 24 24 25 25 25 25 26 26 26 26 27 27 27 27 28 28 28 29 29 29 29 29 30 30 31 32
20 20 20 20 21 21 20 19 19 19 19 19 19 20 21 22 23 24 24 25 26 26 27 27 27 27 27 27 28 28 28 29 29 29 30 30 30 30 29 30 30 30 31
20 19 19 19 19 19 19 20 20 20 20 19 20 21 21 21 22 22 23 23 24 25 26 27 27 27 27 27 28 28 28 28 29 30 30 30 30 30 30 30 30 30 30
20 19 19 19 19 19 20 20 20 21 21 21 21 21 21 21 21 22 23 24 24 25 26 28 28 28 28 28 28 28 28 29 29 29 29 29 29 30 30 30 30 31 31
20 20 20 20 20 19 20 20 21 21 22 22 22 22 22 22 22 23 24 24 25 26 27 27 28 28 28 28 29 29 29 29 29 30 29 29 29 29 30 30 30 30 30
20 20 20 20 20 19 20 20 21 21 22 22 22 22 23 23 23 24 25 25 26 26 26 26 26 26 26 26 27 27 27 28 29 29 29 29 29 29 29 30 30 30 31
21 21 20 20 20 20 20 20 21 21 22 23 23 23 24 24 24 25 25 25 25 25 26 26 26 27 27 26 26 26 27 27 28 27 27 28 28 29 29 30 30 29 29
21 21 21 20 20 20 20 20 21 21 21 21 22 23 24 25 25 24 24 25 25 25 26 26 26 26 27 27 28 28 28 28 28 27 27 27 27 27 27 28 28 28 28
20 21 21 20 20 20 20 20 21 21 22 22 23 24 24 24 24 24 24 25 25 25 25 25 26 26 26 26 27 27 27 27 26 25 25 25 25 26 25 26 27 26 26
Wind_Direction
273 273 273 272 271 270 270 270 268 266 265 265 262 262 262 260 261 260 261 261 260 261 262 262 263 262 263 263 264 264 262 261 259 257 257 258 258 259 261 260 260 261 262
271 272 273 273 272 271 270 269 268 266 265 264 262 261 261 260 260 261 261 261 263 262 260 261 263 265 264 264 264 264 263 262 262 260 259 257 258 259 261 262 263 265 265
272 272 272 273 272 270 269 269 267 266 265 265 263 260 260 260 260 260 262 262 263 263 261 263 264 266 268 266 264 263 262 262 263 263 261 260 259 260 261 262 263 265 267
273 271 272 274 272 270 270 269 268 267 266 264 264 260 258 257 258 259 261 263 264 263 263 264 264 267 268 268 265 263 262 262 262 263 263 262 261 261 262 263 264 267 269
274 272 272 273 272 272 271 269 266 265 264 263 262 260 259 257 257 258 260 262 263 264 264 265 266 268 267 267 267 265 262 261 261 263 263 263 262 262 263 264 266 269 271
277 273 274 273 272 273 271 268 266 264 263 261 259 259 258 257 256 257 260 262 264 263 263 265 267 267 267 266 266 264 262 262 262 263 264 264 264 264 264 264 266 268 270
279 277 278 276 274 273 271 267 266 263 261 260 258 258 259 258 256 256 259 260 263 264 264 265 266 267 266 266 265 265 264 263 263 264 265 264 263 263 264 264 266 267 269
279 278 279 278 276 274 270 267 265 263 260 259 258 258 259 258 258 258 259 261 263 263 265 264 265 265 266 267 267 267 268 266 265 265 265 264 264 264 264 265 266 266 268
281 280 278 279 278 275 272 268 265 262 260 258 257 257 257 258 259 261 261 262 263 264 264 264 265 266 267 267 267 269 271 269 267 267 266 265 264 264 263 264 266 268 269
280 280 278 278 278 275 273 270 265 262 259 258 256 256 257 257 258 259 261 263 263 264 265 264 265 265 267 267 267 269 270 272 272 270 268 266 265 265 264 264 264 267 269
281 282 280 278 276 273 270 270 264 261 259 258 255 254 255 256 257 260 262 263 263 265 266 265 265 265 266 266 267 269 271 272 273 272 271 269 267 267 266 265 265 267 269
280 281 279 277 274 271 267 266 265 260 258 257 253 253 253 255 257 259 262 263 263 264 266 266 265 265 267 268 269 270 272 274 274 276 275 272 270 269 268 267 267 268 270
278 278 277 275 273 270 266 265 267 262 258 255 254 254 254 255 258 260 262 261 261 263 265 266 266 267 268 270 272 273 273 274 275 275 274 272 271 271 270 268 268 269 269
277 278 275 275 273 268 266 265 264 263 260 257 257 257 255 256 258 260 260 259 260 263 266 268 269 270 270 271 273 275 276 276 276 277 276 274 273 272 272 271 270 269 269
276 276 274 273 272 270 268 264 262 264 264 263 260 259 258 258 259 260 261 260 261 264 268 271 272 274 274 273 273 274 276 278 277 276 277 276 274 273 272 272 271 269 270
274 273 273 273 272 272 271 266 262 262 262 264 263 260 260 260 260 260 261 261 262 265 268 271 273 275 276 276 276 277 279 280 279 277 277 277 276 275 273 272 271 269 270
271 271 270 269 270 271 272 272 267 264 261 262 261 257 257 258 260 260 260 262 263 266 268 270 273 275 277 277 277 279 280 280 279 279 278 278 276 275 274 272 272 269 270
271 268 268 269 269 270 269 270 269 266 263 262 260 257 257 256 258 260 262 263 265 267 270 271 274 276 277 279 279 279 281 280 280 280 280 278 276 275 274 273 273 272 271
271 271 270 270 269 267 265 266 267 266 266 264 263 263 263 262 262 263 264 266 267 268 270 272 274 276 277 278 279 279 281 281 281 281 280 279 277 275 275 276 275 275 273
270 272 273 272 271 268 266 266 267 267 266 265 265 267 267 266 266 267 268 269 270 270 270 272 274 276 277 279 279 279 280 281 281 280 280 279 277 275 275 276 275 275 274
271 269 271 271 271 270 269 268 266 266 266 267 267 267 268 269 269 269 270 272 273 273 273 274 275 276 277 278 279 280 281 282 281 280 280 279 277 276 275 276 276 275 274
271 269 271 271 271 271 270 268 268 268 267 267 267 266 267 269 271 272 273 273 275 276 276 276 277 277 278 279 280 281 282 282 282 280 280 281 279 277 276 276 276 276 276
271 270 270 271 271 271 270 269 268 268 268 267 268 269 271 272 273 274 274 275 275 276 276 277 279 279 279 280 281 281 282 283 283 281 279 278 279 279 278 277 276 275 275
272 269 269 271 272 272 271 270 269 270 270 270 270 271 272 273 273 274 274 275 275 276 276 278 280 280 279 279 279 281 282 283 282 280 279 279 279 279 280 279 278 277 277
271 269 269 270 272 274 273 271 271 271 271 272 273 273 273 273 274 275 276 277 276 276 277 278 278 279 279 278 279 280 281 282 282 281 281 281 280 280 280 281 281 279 278
272 270 270 271 273 274 274 274 274 275 276 276 275 276 276 275 275 275 276 276 276 276 278 278 278 278 279 280 280 281 282 283 283 282 282 281 281 280 279 280 281 280 280
Height
5807 5807 5807 5807 5807 5807 5807 5807 5808 5808 5808 5809 5809 5810 5811 5812 5812 5813 5814 5815 5815 5816 5816 5817 5817 5818 5818 5818 5818 5819 5819 5819 5820 5821 5821 5821 5821 5822 5823 5823 5823 5824 5824
5801 5801 5801 5801 5801 5801 5801 5801 5801 5802 5802 5803 5804 5805 5805 5806 5807 5808 5808 5809 5810 5811 5811 5812 5812 5812 5813 5813 5813 5813 5814 5814 5815 5815 5815 5816 5816 5817 5818 5818 5818 5818 5819
5795 5795 5795 5795 5795 5794 5794 5794 5795 5795 5796 5797 5797 5798 5799 5800 5801 5802 5803 5803 5804 5805 5805 5806 5807 5807 5807 5807 5807 5807 5808 5808 5809 5809 5810 5810 5810 5811 5812 5812 5812 5813 5813
5789 5789 5789 5788 5788 5788 5787 5787 5788 5789 5789 5790 5791 5792 5793 5794 5795 5796 5796 5797 5798 5799 5799 5800 5800 5801 5801 5801 5801 5801 5802 5802 5803 5803 5804 5804 5804 5805 5805 5806 5806 5806 5807
5782 5782 5782 5781 5781 5781 5781 5781 5781 5782 5783 5783 5784 5785 5786 5787 5788 5789 5790 5791 5792 5792 5793 5793 5793 5794 5794 5794 5794 5795 5795 5796 5796 5797 5797 5798 5798 5799 5799 5800 5800 5800 5800
5775 5775 5774 5774 5774 5774 5774 5774 5774 5775 5776 5777 5777 5778 5779 5780 5782 5783 5784 5785 5785 5786 5786 5787 5787 5788 5788 5788 5788 5788 5789 5789 5790 5790 5791 5791 5791 5792 5792 5793 5793 5793 5793
5769 5767 5767 5767 5766 5766 5766 5767 5767 5768 5769 5770 5771 5772 5773 5774 5775 5776 5777 5778 5779 5779 5780 5780 5781 5781 5781 5781 5781 5781 5782 5782 5783 5783 5784 5784 5784 5785 5785 5786 5786 5786 5786
5762 5761 5760 5759 5759 5758 5759 5759 5760 5761 5762 5763 5765 5765 5766 5766 5768 5769 5770 5771 5772 5772 5773 5773 5774 5774 5774 5774 5774 5774 5774 5774 5775 5776 5776 5776 5777 5777 5778 5778 5778 5779 5779
5755 5754 5754 5753 5752 5751 5751 5752 5752 5753 5755 5756 5758 5759 5760 5761 5762 5762 5763 5764 5765 5766 5766 5766 5767 5767 5767 5767 5767 5767 5767 5767 5767 5767 5768 5768 5769 5769 5770 5770 5771 5771 5771
5749 5748 5747 5746 5745 5745 5745 5745 5746 5747 5748 5749 5751 5752 5754 5755 5755 5756 5757 5758 5758 5759 5759 5759 5760 5760 5760 5760 5760 5760 5760 5760 5760 5760 5760 5760 5761 5761 5761 5762 5762 5763 5763
5743 5742 5741 5740 5739 5739 5739 5739 5740 5741 5742 5743 5744 5746 5747 5748 5749 5750 5751 5751 5752 5752 5752 5752 5753 5753 5753 5753 5754 5754 5754 5753 5753 5752 5752 5752 5753 5753 5753 5753 5754 5754 5755
5737 5736 5735 5734 5733 5733 5733 5733 5734 5734 5735 5736 5738 5739 5740 5741 5743 5743 5744 5744 5745 5745 5746 5746 5746 5746 5746 5747 5747 5747 5747 5746 5746 5745 5745 5744 5745 5745 5745 5745 5745 5746 5746
5730 5729 5729 5728 5727 5727 5727 5727 5727 5728 5729 5730 5731 5733 5734 5735 5736 5737 5737 5737 5738 5739 5739 5739 5739 5739 5739 5739 5739 5739 5739 5739 5738 5738 5737 5737 5736 5736 5736 5736 5736 5737 5737
5723 5723 5722 5721 5721 5720 5720 5721 5721 5722 5723 5724 5725 5726 5727 5728 5729 5730 5731 5731 5732 5732 5733 5733 5733 5732 5732 5732 5732 5731 5731 5731 5730 5730 5729 5729 5728 5728 5727 5727 5727 5727 5728
5716 5716 5715 5715 5714 5714 5714 5714 5715 5715 5716 5717 5718 5719 5720 5721 5722 5723 5724 5724 5725 5725 5726 5726 5725 5725 5725 5724 5724 5724 5723 5722 5722 5722 5721 5720 5719 5719 5718 5718 5718 5718 5718
5709 5708 5708 5708 5707 5707 5707 5708 5708 5709 5709 5710 5711 5712 5713 5714 5715 5716 5717 5717 5718 5718 5719 5719 5718 5718 5717 5716 5716 5715 5715 5714 5713 5713 5712 5711 5710 5709 5709 5709 5709 5709 5709
5701 5701 5701 5701 5700 5701 5701 5701 5702 5702 5703 5703 5704 5705 5706 5707 5708 5709 5709 5710 5710 5711 5711 5711 5711 5711 5710 5709 5708 5707 5706 5705 5704 5703 5702 5701 5701 5700 5699 5699 5699 5699 5699
5694 5694 5693 5693 5693 5694 5694 5695 5695 5696 5696 5697 5698 5698 5699 5700 5701 5702 5702 5702 5703 5703 5704 5704 5703 5703 5702 5701 5699 5698 5697 5696 5695 5694 5693 5692 5691 5691 5690 5690 5690 5689 5689
5688 5687 5687 5687 5687 5687 5688 5688 5689 5689 5690 5690 5691 5692 5692 5693 5694 5694 5695 5695 5695 5696 5696 5696 5695 5694 5693 5692 5691 5690 5688 5687 5686 5685 5684 5683 5682 5681 5681 5681 5680 5679 5679
5682 5681 5681 5681 5681 5681 5682 5682 5683 5683 5684 5684 5685 5686 5686 5686 5687 5687 5687 5687 5688 5688 5687 5687 5686 5685 5685 5683 5682 5681 5679 5678 5677 5676 5674 5673 5672 5672 5672 5671 5671 5670 5670
5676 5675 5675 5675 5675 5675 5675 5676 5676 5677 5678 5678 5678 5679 5679 5680 5680 5680 5680 5680 5680 5680 5679 5679 5678 5677 5676 5675 5673 5672 5671 5669 5668 5667 5665 5664 5663 5663 5662 5662 5661 5661 5660
5669 5669 5669 5669 5669 5669 5669 5669 5669 5670 5671 5671 5671 5671 5672 5673 5673 5673 5673 5673 5672 5672 5671 5670 5669 5668 5667 5666 5665 5664 5662 5660 5659 5657 5656 5656 5655 5654 5653 5652 5652 5651 5650
5663 5663 5663 5663 5663 5662 5662 5663 5663 5663 5664 5664 5664 5665 5665 5665 5665 5665 5665 5665 5664 5664 5663 5662 5661 5660 5659 5658 5656 5655 5653 5652 5650 5648 5648 5647 5646 5645 5644 5643 5642 5641 5641
5657 5657 5657 5657 5656 5656 5656 5656 5657 5657 5657 5657 5657 5658 5658 5658 5658 5657 5657 5657 5656 5655 5654 5654 5653 5651 5650 5649 5647 5646 5644 5643 5641 5640 5639 5638 5637 5636 5635 5634 5633 5632 5631
5650 5650 5650 5650 5650 5649 5649 5649 5649 5650 5650 5650 5650 5650 5650 5650 5650 5649 5649 5648 5648 5647 5646 5645 5644 5643 5641 5640 5639 5638 5636 5635 5633 5632 5630 5629 5628 5627 5626 5625 5624 5623 5622
5643 5643 5643 5643 5643 5643 5643 5642 5642 5642 5642 5642 5642 5642 5642 5641 5641 5641 5641 5640 5639 5638 5637 5636 5635 5634 5633 5632 5631 5629 5628 5626 5625 5624 5622 5621 5620 5619 5618 5617 5616 5615 5613